Language: 


Des rapports , des résumés tant et plus, au choix de chacun....


Données statistiques de la station
Quotidien Rapport Décembre 10, 2017 Unités:  Anglais    Métrique   les deux
« Précédent Jour
Suivant Jour »
Quotidien Hebdomadaire Mensuel Annuel Actuel
  Haut: Bas: Moyen:
Température: TemperatureC °F 0.0 °F 3.4 °F
Pt de rosée: DewpointC °F 1.0 °F 2.9 °F
Humidité: Humidity % 0 % 93 %
Vitesse du vent: WindSpeedKMH mph 0.0 mph 16.8 mph
Rafales: WindSpeedGustKMH mph - -
Vent:- - SW
Pression: PressurehPa in 0.0 in -
Précipitation: 19.6 in    
Historical Graphs
 
 
Données statistiques pour Décembre 10, 2017
Heure Température Point de rosée Pression Vent Vitesse du vent Refales Humidité Pluie (taux horaire)
TemperatureC °F DewpointC °F PressurehPa in Calm     Humidity % HourlyPrecipMM in
00:03 1.4 °F 1.0 °F 1007.0 in SW 9.7 mph 12.2 mph 98 % 0.0 in
00:08 1.4 °F 1.0 °F 1007.0 in SW 7.9 mph 13.0 mph 98 % 0.0 in
00:13 1.4 °F 1.0 °F 1006.0 in WSW 10.1 mph 13.0 mph 98 % 0.0 in
00:23 1.4 °F 1.0 °F 1006.0 in WSW 9.0 mph 14.0 mph 98 % 0.0 in
00:28 1.4 °F 1.0 °F 1006.0 in SSW 10.1 mph 12.2 mph 98 % 0.0 in
00:33 1.5 °F 2.0 °F 1006.0 in WSW 9.3 mph 12.6 mph 98 % 0.0 in
00:38 1.5 °F 2.0 °F 1006.0 in SSW 9.7 mph 12.6 mph 98 % 0.0 in
00:43 1.5 °F 2.0 °F 1006.0 in SW 8.7 mph 12.6 mph 98 % 0.0 in
00:53 1.6 °F 2.0 °F 1006.0 in SSW 14.0 mph 15.1 mph 98 % 0.3 in
01:04 1.6 °F 2.0 °F 1005.0 in SW 6.4 mph 15.1 mph 98 % 0.3 in
01:09 1.6 °F 2.0 °F 1005.0 in SSW 6.1 mph 15.1 mph 98 % 0.3 in
01:24 1.5 °F 2.0 °F 1005.0 in Calm   8.7 mph 98 % 0.3 in
01:29 1.4 °F 1.0 °F 1005.0 in South 6.9 mph 9.0 mph 98 % 0.3 in
01:34 1.4 °F 1.0 °F 1005.0 in SSW 7.9 mph 11.9 mph 98 % 0.3 in
01:39 1.5 °F 2.0 °F 1005.0 in South 5.5 mph 11.9 mph 98 % 0.3 in
01:44 1.5 °F 2.0 °F 1002.9 in South 8.7 mph 9.0 mph 98 % 0.3 in
01:49 1.5 °F 2.0 °F 1002.9 in Calm   10.1 mph 98 % 0.0 in
01:54 1.5 °F 2.0 °F 1002.9 in Calm   10.1 mph 98 % 0.0 in
01:59 1.5 °F 2.0 °F 1001.9 in South 6.9 mph 9.3 mph 98 % 0.0 in
02:04 1.5 °F 2.0 °F 1001.9 in SSW 5.8 mph 9.3 mph 98 % 0.0 in
02:14 1.6 °F 2.0 °F 1002.9 in SSW 3.2 mph 6.9 mph 98 % 0.0 in
02:19 1.7 °F 2.0 °F 1002.9 in SW 8.7 mph 9.3 mph 98 % 0.0 in
02:24 1.7 °F 2.0 °F 1002.9 in Calm   10.5 mph 98 % 0.0 in
02:39 1.7 °F 2.0 °F 1002.9 in Calm   8.7 mph 98 % 0.0 in
02:44 1.7 °F 2.0 °F 1001.9 in Calm   5.0 mph 98 % 0.0 in
02:49 1.7 °F 2.0 °F 1001.9 in Calm   9.0 mph 98 % 0.0 in
03:02 0.0 °F 2.0 °F 0.0 in Calm   6.4 mph 0 % 0.0 in
03:07 1.8 °F 2.0 °F 1000.9 in SSW 2.1 mph 9.3 mph 98 % 0.0 in
03:12 1.8 °F 2.0 °F 1000.9 in South 6.1 mph 9.3 mph 98 % 0.0 in
03:17 1.8 °F 2.0 °F 1000.9 in South 4.7 mph 9.3 mph 98 % 0.0 in
03:22 1.8 °F 2.0 °F 1000.9 in Calm   9.3 mph 98 % 0.0 in
03:27 1.8 °F 2.0 °F 1000.9 in Calm   6.4 mph 98 % 0.0 in
03:32 1.9 °F 2.0 °F 1000.9 in Calm   6.9 mph 98 % 0.0 in
03:42 1.9 °F 2.0 °F 999.9 in South 5.8 mph 10.1 mph 98 % 0.0 in
03:48 1.9 °F 2.0 °F 999.9 in South 4.0 mph 10.1 mph 98 % 0.0 in
03:53 1.9 °F 2.0 °F 999.9 in Calm   11.9 mph 98 % 0.0 in
03:58 2.0 °F 2.0 °F 998.9 in SSE 6.4 mph 11.9 mph 98 % 0.0 in
04:03 2.0 °F 2.0 °F 998.9 in South 10.1 mph 14.0 mph 98 % 0.0 in
04:08 2.1 °F 2.0 °F 998.9 in South 11.9 mph 17.2 mph 98 % 0.0 in
04:14 2.1 °F 2.0 °F 998.9 in South 9.3 mph 17.2 mph 98 % 0.0 in
04:19 2.2 °F 2.0 °F 998.9 in South 9.7 mph 14.0 mph 98 % 0.0 in
04:22 2.2 °F 2.0 °F 998.9 in South 8.7 mph 14.0 mph 98 % 0.0 in
04:25 2.2 °F 2.0 °F 998.9 in South 11.9 mph 14.0 mph 98 % 0.0 in
04:26 2.2 °F 2.0 °F 997.9 in SSW 9.7 mph 14.0 mph 98 % 0.0 in
04:31 2.3 °F 3.0 °F 997.9 in South 13.7 mph 16.6 mph 98 % 0.0 in
04:41 2.4 °F 3.0 °F 996.8 in SSE 13.7 mph 16.3 mph 98 % 0.0 in
04:47 2.4 °F 3.0 °F 996.8 in South 14.0 mph 17.7 mph 98 % 0.0 in
04:52 2.4 °F 3.0 °F 996.8 in South 10.1 mph 17.2 mph 98 % 0.0 in
05:07 2.6 °F 3.0 °F 996.8 in South 11.9 mph 20.1 mph 98 % 0.0 in
05:12 2.6 °F 3.0 °F 996.2 in South 13.0 mph 17.7 mph 98 % 0.0 in
05:17 2.6 °F 3.0 °F 996.2 in SSW 10.1 mph 24.8 mph 98 % 0.0 in
05:22 2.6 °F 3.0 °F 996.2 in South 9.0 mph 24.8 mph 98 % 0.0 in
05:27 2.7 °F 3.0 °F 995.1 in SSW 15.4 mph 17.7 mph 98 % 0.0 in
05:32 2.7 °F 3.0 °F 995.1 in South 13.7 mph 20.6 mph 98 % 0.0 in
05:37 2.7 °F 3.0 °F 995.1 in South 15.1 mph 20.6 mph 98 % 0.0 in
05:42 2.7 °F 3.0 °F 994.1 in South 10.1 mph 20.6 mph 98 % 0.0 in
05:47 2.7 °F 3.0 °F 994.1 in South 21.6 mph 23.3 mph 98 % 0.0 in
05:52 2.8 °F 3.0 °F 994.1 in South 9.7 mph 23.3 mph 98 % 0.0 in
05:57 2.8 °F 3.0 °F 994.1 in South 15.8 mph 21.6 mph 98 % 0.0 in
06:02 2.7 °F 3.0 °F 994.1 in South 8.7 mph 17.7 mph 98 % 0.0 in
06:07 2.7 °F 3.0 °F 994.1 in SSE 15.8 mph 23.0 mph 98 % 0.0 in
06:17 2.7 °F 3.0 °F 993.1 in South 12.2 mph 27.7 mph 98 % 0.3 in
06:23 2.7 °F 3.0 °F 993.1 in South 12.6 mph 27.7 mph 98 % 0.3 in
06:38 2.6 °F 3.0 °F 993.1 in SSE 23.8 mph 23.8 mph 98 % 0.5 in
06:48 2.6 °F 3.0 °F 991.1 in South 9.7 mph 27.7 mph 98 % 0.5 in
06:53 2.6 °F 3.0 °F 991.1 in SSW 14.0 mph 27.7 mph 98 % 0.5 in
07:08 2.4 °F 3.0 °F 991.1 in SSE 19.5 mph 20.6 mph 98 % 0.8 in
07:13 2.4 °F 3.0 °F 989.1 in ENE 19.1 mph 20.6 mph 98 % 1.0 in
07:18 2.3 °F 3.0 °F 989.1 in SSE 9.0 mph 30.9 mph 98 % 1.0 in
07:28 2.1 °F 2.0 °F 989.1 in SSE 13.0 mph 26.7 mph 98 % 1.3 in
07:38 1.9 °F 2.0 °F 989.1 in SSE 15.1 mph 20.6 mph 98 % 1.3 in
07:42 1.9 °F 2.0 °F 987.0 in South 16.3 mph 24.8 mph 98 % 1.5 in
07:47 1.8 °F 2.0 °F 987.0 in SSE 11.9 mph 24.8 mph 98 % 1.5 in
07:57 1.6 °F 2.0 °F 987.0 in South 20.1 mph 27.0 mph 98 % 1.5 in
08:02 1.5 °F 2.0 °F 987.0 in SSE 15.4 mph 30.9 mph 98 % 1.8 in
08:07 1.3 °F 1.0 °F 987.0 in SSE 20.9 mph 30.9 mph 98 % 1.8 in
08:12 1.2 °F 1.0 °F 986.0 in South 10.1 mph 31.7 mph 98 % 1.5 in
08:17 1.1 °F 1.0 °F 986.0 in SSE 20.1 mph 31.7 mph 98 % 1.5 in
08:22 1.1 °F 1.0 °F 986.0 in SE 12.6 mph 24.8 mph 98 % 1.3 in
08:27 1.0 °F 1.0 °F 985.0 in SSE 20.9 mph 24.8 mph 98 % 1.3 in
08:32 1.0 °F 1.0 °F 985.0 in SSE 25.6 mph 25.6 mph 98 % 0.8 in
08:37 1.0 °F 1.0 °F 985.0 in SE 20.1 mph 25.6 mph 98 % 0.8 in
08:57 1.0 °F 1.0 °F 983.0 in SE 19.1 mph 27.7 mph 98 % 0.3 in
09:07 0.9 °F 1.0 °F 983.0 in SE 17.2 mph 25.3 mph 98 % 0.0 in
09:12 0.9 °F 1.0 °F 983.0 in SSE 13.0 mph 30.9 mph 98 % 0.0 in
09:17 0.9 °F 1.0 °F 983.0 in SSE 16.9 mph 30.9 mph 98 % 0.0 in
09:18 0.9 °F 1.0 °F 983.0 in SSE 13.0 mph 30.9 mph 98 % 0.0 in
09:23 0.9 °F 1.0 °F 983.0 in SE 12.2 mph 23.3 mph 98 % 0.0 in
09:33 0.9 °F 1.0 °F 980.9 in SSE 12.2 mph 20.9 mph 98 % 0.0 in
09:38 0.9 °F 1.0 °F 980.9 in SSE 9.3 mph 24.5 mph 98 % 0.0 in
09:43 0.9 °F 1.0 °F 980.9 in South 10.5 mph 24.5 mph 98 % 0.0 in
09:53 0.9 °F 1.0 °F 980.9 in SSE 14.0 mph 21.6 mph 98 % 0.0 in
09:58 0.9 °F 1.0 °F 978.9 in SSE 13.0 mph 21.6 mph 98 % 0.0 in
10:08 0.9 °F 1.0 °F 978.9 in SSE 17.7 mph 24.5 mph 98 % 0.0 in
10:13 0.9 °F 1.0 °F 977.9 in South 11.9 mph 22.4 mph 98 % 0.0 in
10:18 1.0 °F 1.0 °F 977.9 in South 4.3 mph 27.0 mph 98 % 0.0 in
10:23 1.0 °F 1.0 °F 977.9 in SE 16.6 mph 27.0 mph 98 % 0.0 in
10:28 1.1 °F 1.0 °F 976.9 in SSE 16.6 mph 23.0 mph 98 % 0.0 in
10:33 1.1 °F 1.0 °F 976.9 in SE 27.7 mph 27.7 mph 98 % 0.0 in
10:38 1.2 °F 1.0 °F 976.9 in SE 19.8 mph 27.7 mph 98 % 0.0 in
10:43 1.2 °F 1.0 °F 976.9 in South 10.1 mph 27.7 mph 98 % 0.0 in
10:46 1.3 °F 1.0 °F 976.9 in SE 19.8 mph 24.8 mph 98 % 0.0 in
10:52 1.3 °F 1.0 °F 976.9 in SSE 12.6 mph 24.8 mph 98 % 0.0 in
11:02 1.4 °F 1.0 °F 976.9 in SSW 13.7 mph 31.7 mph 98 % 0.0 in
11:07 1.5 °F 2.0 °F 976.9 in SSW 12.2 mph 31.7 mph 98 % 0.0 in
11:17 1.6 °F 2.0 °F 975.2 in South 16.9 mph 39.3 mph 98 % 0.0 in
11:22 1.7 °F 2.0 °F 975.2 in South 25.3 mph 32.0 mph 98 % 0.0 in
11:27 1.7 °F 2.0 °F 975.2 in South 20.9 mph 36.7 mph 98 % 0.3 in
11:32 1.8 °F 2.0 °F 975.2 in South 21.2 mph 36.7 mph 98 % 0.5 in
11:37 2.0 °F 2.0 °F 975.2 in South 12.2 mph 30.6 mph 98 % 1.0 in
11:42 2.1 °F 2.0 °F 975.2 in WSW 24.5 mph 33.8 mph 98 % 1.3 in
11:47 2.2 °F 2.0 °F 975.2 in SSW 20.1 mph 33.8 mph 98 % 1.5 in
11:52 2.4 °F 3.0 °F 975.2 in SSW 16.9 mph 28.5 mph 98 % 1.8 in
12:03 2.4 °F 3.0 °F 974.2 in SW 7.9 mph 35.2 mph 98 % 3.0 in
12:08 2.5 °F 3.0 °F 974.2 in SW 9.3 mph 18.0 mph 98 % 3.8 in
12:13 2.5 °F 3.0 °F 975.2 in South 17.2 mph 26.7 mph 98 % 5.1 in
12:23 2.8 °F 3.0 °F 975.2 in SSW 9.0 mph 20.9 mph 98 % 5.8 in
12:28 3.0 °F 3.0 °F 974.2 in SSW 8.7 mph 19.8 mph 98 % 5.8 in
12:33 3.3 °F 3.0 °F 974.2 in SW 14.3 mph 19.8 mph 98 % 5.8 in
12:38 3.8 °F 4.0 °F 974.2 in WSW 16.9 mph 23.8 mph 98 % 5.8 in
12:43 4.1 °F 4.0 °F 973.1 in SW 10.8 mph 23.8 mph 98 % 5.8 in
12:48 4.3 °F 4.0 °F 973.1 in SW 23.0 mph 28.0 mph 98 % 5.8 in
12:53 4.6 °F 5.0 °F 973.1 in WSW 17.7 mph 28.0 mph 98 % 5.6 in
12:58 4.8 °F 5.0 °F 973.1 in WSW 16.6 mph 25.3 mph 98 % 5.6 in
13:03 4.8 °F 5.0 °F 973.1 in West 20.1 mph 25.3 mph 98 % 5.1 in
13:08 5.0 °F 5.0 °F 973.1 in WSW 24.5 mph 38.5 mph 98 % 4.8 in
13:14 5.3 °F 6.0 °F 973.1 in WSW 24.5 mph 38.5 mph 98 % 4.1 in
13:24 5.8 °F 6.0 °F 973.1 in WSW 32.0 mph 47.5 mph 98 % 4.1 in
13:29 6.0 °F 6.0 °F 973.1 in WSW 46.8 mph 47.5 mph 98 % 4.1 in
13:34 6.2 °F 6.0 °F 973.1 in WSW 37.5 mph 55.3 mph 98 % 4.1 in
13:44 6.5 °F 7.0 °F 972.1 in WSW 26.2 mph 53.6 mph 98 % 3.3 in
13:49 6.6 °F 7.0 °F 972.1 in WSW 29.1 mph 45.7 mph 98 % 3.3 in
13:54 6.7 °F 7.0 °F 972.1 in WSW 37.0 mph 45.1 mph 98 % 3.8 in
14:04 7.1 °F 7.0 °F 973.1 in WSW 24.5 mph 50.0 mph 98 % 3.3 in
14:09 7.1 °F 7.0 °F 973.1 in WSW 23.0 mph 44.6 mph 98 % 3.3 in
14:14 7.4 °F 7.0 °F 973.1 in WSW 42.8 mph 51.5 mph 98 % 3.0 in
14:19 8.0 °F 8.0 °F 973.1 in WSW 48.3 mph 57.3 mph 96 % 2.8 in
14:34 8.7 °F 7.0 °F 972.1 in WSW 49.7 mph 67.7 mph 85 % 2.3 in
14:39 9.0 °F 6.0 °F 972.1 in WSW 53.6 mph 67.7 mph 82 % 1.8 in
14:44 9.2 °F 6.0 °F 972.1 in West 44.6 mph 70.5 mph 80 % 1.8 in
14:54 9.3 °F 6.0 °F 972.1 in West 43.6 mph 64.0 mph 78 % 1.3 in
14:59 9.3 °F 6.0 °F 972.1 in WSW 43.6 mph 68.1 mph 77 % 0.8 in
15:09 9.3 °F 6.0 °F 972.1 in WSW 59.4 mph 80.9 mph 78 % 0.5 in
15:14 9.3 °F 6.0 °F 971.1 in WSW 58.2 mph 80.9 mph 78 % 0.5 in
15:20 9.3 °F 6.0 °F 971.1 in WSW 49.2 mph 59.4 mph 78 % 0.3 in
15:25 9.3 °F 6.0 °F 971.1 in West 51.2 mph 58.2 mph 78 % 0.3 in
15:30 9.3 °F 6.0 °F 972.1 in WSW 61.9 mph 73.0 mph 78 % 0.3 in
15:35 9.3 °F 6.0 °F 972.1 in WSW 43.9 mph 73.0 mph 78 % 0.0 in
15:40 9.3 °F 6.0 °F 972.1 in WSW 66.9 mph 66.9 mph 78 % 0.0 in
15:45 9.2 °F 7.0 °F 972.1 in WSW 51.8 mph 74.8 mph 82 % 0.0 in
15:50 9.0 °F 7.0 °F 972.1 in WSW 50.0 mph 74.8 mph 84 % 0.0 in
15:55 8.8 °F 7.0 °F 972.1 in WSW 36.4 mph 71.3 mph 86 % 0.3 in
16:00 8.6 °F 7.0 °F 973.1 in West 32.3 mph 53.6 mph 89 % 1.0 in
16:10 8.3 °F 8.0 °F 973.1 in WSW 36.7 mph 48.9 mph 93 % 1.8 in
16:15 8.2 °F 7.0 °F 972.1 in WSW 55.8 mph 56.5 mph 94 % 2.5 in
16:20 8.0 °F 7.0 °F 972.1 in West 43.1 mph 60.8 mph 94 % 3.0 in
16:30 7.8 °F 7.0 °F 973.1 in West 40.7 mph 51.8 mph 96 % 3.3 in
16:35 7.8 °F 7.0 °F 973.1 in WSW 38.5 mph 56.5 mph 96 % 3.3 in
16:40 7.8 °F 7.0 °F 973.1 in WSW 40.4 mph 63.4 mph 96 % 3.8 in
16:46 7.7 °F 7.0 °F 973.1 in West 37.8 mph 63.4 mph 96 % 3.8 in
16:56 7.7 °F 7.0 °F 974.2 in West 46.8 mph 53.3 mph 96 % 3.3 in
17:03 7.5 °F 7.0 °F 974.2 in WSW 32.0 mph 52.6 mph 95 % 2.5 in
17:08 7.5 °F 7.0 °F 974.2 in WSW 42.2 mph 54.4 mph 95 % 1.8 in
17:28 7.4 °F 7.0 °F 974.2 in West 42.8 mph 51.8 mph 95 % 0.3 in
17:38 7.3 °F 6.0 °F 974.2 in West 46.0 mph 61.9 mph 94 % 0.0 in
17:48 7.3 °F 6.0 °F 975.2 in West 34.6 mph 54.7 mph 93 % 0.0 in
17:53 7.3 °F 6.0 °F 975.2 in WSW 29.9 mph 51.5 mph 92 % 0.0 in
18:03 6.8 °F 5.0 °F 974.2 in West 24.5 mph 42.5 mph 86 % 0.0 in
18:13 6.5 °F 4.0 °F 975.2 in West 27.7 mph 42.8 mph 82 % 0.3 in
18:18 6.4 °F 4.0 °F 975.2 in West 21.9 mph 42.8 mph 83 % 0.3 in
18:23 6.2 °F 4.0 °F 975.2 in West 21.2 mph 36.0 mph 83 % 0.3 in
18:28 6.1 °F 4.0 °F 976.9 in West 9.7 mph 28.5 mph 84 % 0.3 in
18:34 5.8 °F 4.0 °F 976.9 in West 11.9 mph 32.0 mph 84 % 0.3 in
18:44 5.2 °F 3.0 °F 977.9 in WNW 12.2 mph 20.6 mph 83 % 0.3 in
18:49 4.9 °F 2.0 °F 977.9 in WNW 9.7 mph 21.2 mph 83 % 0.3 in
18:54 4.6 °F 2.0 °F 977.9 in WNW 14.8 mph 21.2 mph 82 % 0.3 in
18:59 4.3 °F 2.0 °F 976.9 in WNW 10.8 mph 20.6 mph 83 % 0.3 in
19:04 4.2 °F 2.0 °F 976.9 in WNW 15.4 mph 23.0 mph 83 % 0.3 in
19:09 4.0 °F 2.0 °F 976.9 in West 12.6 mph 23.0 mph 84 % 0.0 in
19:14 3.9 °F 2.0 °F 977.9 in West 9.0 mph 18.3 mph 85 % 0.0 in
19:19 3.8 °F 2.0 °F 977.9 in West 9.0 mph 16.3 mph 86 % 0.0 in
19:29 3.6 °F 2.0 °F 977.9 in West 15.1 mph 23.3 mph 88 % 0.0 in
19:34 3.6 °F 2.0 °F 977.9 in West 15.1 mph 20.6 mph 88 % 0.0 in
19:39 3.6 °F 2.0 °F 977.9 in West 15.8 mph 23.8 mph 88 % 0.0 in
19:44 3.6 °F 2.0 °F 978.9 in West 18.3 mph 23.8 mph 88 % 0.0 in
19:49 3.6 °F 2.0 °F 978.9 in West 15.4 mph 23.8 mph 88 % 0.0 in
19:59 3.5 °F 2.0 °F 978.9 in West 10.1 mph 17.7 mph 88 % 0.0 in
20:04 3.5 °F 2.0 °F 978.9 in WNW 10.1 mph 15.8 mph 88 % 0.0 in
20:14 3.5 °F 2.0 °F 977.9 in West 18.0 mph 23.0 mph 87 % 0.0 in
20:19 3.5 °F 2.0 °F 977.9 in West 10.8 mph 23.0 mph 86 % 0.0 in
20:25 3.5 °F 2.0 °F 977.9 in West 9.7 mph 20.1 mph 87 % 0.0 in
20:30 3.5 °F 2.0 °F 978.9 in West 8.7 mph 16.9 mph 87 % 0.0 in
20:32 3.4 °F 2.0 °F 978.9 in West 3.5 mph 16.9 mph 87 % 0.0 in
20:37 3.4 °F 2.0 °F 978.9 in West 13.0 mph 21.6 mph 87 % 0.0 in
20:38 3.4 °F 2.0 °F 978.9 in West 14.8 mph 21.6 mph 87 % 0.0 in
20:43 3.3 °F 2.0 °F 979.9 in West 12.2 mph 26.2 mph 88 % 0.0 in
20:54 3.2 °F 2.0 °F 979.9 in West 15.4 mph 20.9 mph 87 % 0.0 in
20:59 3.1 °F 1.0 °F 979.9 in West 14.0 mph 20.9 mph 88 % 0.0 in
21:04 3.0 °F 1.0 °F 979.9 in West 12.6 mph 19.8 mph 88 % 0.0 in
21:14 2.9 °F 2.0 °F 980.9 in WSW 14.0 mph 17.2 mph 89 % 0.0 in
21:24 3.0 °F 2.0 °F 980.9 in West 11.9 mph 20.9 mph 90 % 0.0 in
21:29 3.0 °F 2.0 °F 980.9 in WSW 7.2 mph 16.3 mph 90 % 0.0 in
21:34 3.0 °F 2.0 °F 980.9 in WSW 13.7 mph 17.2 mph 91 % 0.0 in
21:39 3.0 °F 2.0 °F 980.9 in WSW 14.3 mph 17.2 mph 91 % 0.0 in
21:54 3.1 °F 2.0 °F 979.9 in WSW 9.7 mph 13.7 mph 92 % 0.0 in
21:59 3.1 °F 2.0 °F 980.9 in WSW 9.3 mph 14.0 mph 92 % 0.0 in
22:04 3.1 °F 2.0 °F 980.9 in WSW 8.7 mph 14.0 mph 92 % 0.0 in
22:09 3.1 °F 2.0 °F 980.9 in WSW 7.9 mph 11.9 mph 92 % 0.0 in
22:14 3.1 °F 2.0 °F 980.9 in WSW 9.0 mph 10.8 mph 93 % 0.0 in
22:19 3.1 °F 2.0 °F 980.9 in WSW 7.2 mph 10.8 mph 93 % 0.0 in
22:25 3.0 °F 2.0 °F 980.9 in WSW 6.9 mph 10.1 mph 93 % 0.0 in
22:30 3.0 °F 2.0 °F 980.9 in WSW 6.4 mph 10.1 mph 93 % 0.0 in
22:35 3.0 °F 2.0 °F 980.9 in WSW 2.6 mph 9.3 mph 93 % 0.0 in
22:40 3.0 °F 2.0 °F 980.9 in SW 6.9 mph 10.1 mph 93 % 0.0 in
22:45 3.0 °F 2.0 °F 980.9 in SW 7.6 mph 10.1 mph 93 % 0.0 in
22:50 3.0 °F 2.0 °F 980.9 in SSW 6.4 mph 10.1 mph 93 % 0.0 in
22:55 3.0 °F 2.0 °F 980.9 in SSW 3.2 mph 7.9 mph 93 % 0.0 in
23:00 3.0 °F 2.0 °F 980.9 in Calm   7.9 mph 93 % 0.0 in
23:05 2.9 °F 2.0 °F 980.9 in Calm   6.4 mph 93 % 0.0 in
23:10 2.9 °F 2.0 °F 980.9 in Calm   6.4 mph 93 % 0.0 in
23:15 2.7 °F 2.0 °F 980.9 in Calm     93 % 0.0 in
23:20 2.5 °F 2.0 °F 980.9 in Calm     92 % 0.0 in
23:25 2.4 °F 1.0 °F 980.9 in Calm     92 % 0.0 in
23:30 2.3 °F 1.0 °F 980.9 in SSW 1.8 mph 4.0 mph 92 % 0.0 in
23:35 2.3 °F 2.0 °F 980.9 in Calm   4.0 mph 93 % 0.0 in
23:40 2.2 °F 1.0 °F 980.9 in Calm     93 % 0.0 in
23:45 2.1 °F 1.0 °F 980.9 in Calm     93 % 0.0 in
23:55 1.9 °F 1.0 °F 980.9 in Calm   3.5 mph 93 % 0.0 in
Le Gheer Warneton
Courtoisie de Weather Underground - 2 mb

Mise a jour : 18/02/2018 21:07:11
Généré par Cumulus 1.9.4 (1099)